Location: The Saddle
(36.8333°N, 80.3417°W)
Time: 06:37:26
(UTC-05:00)

Vanguard 2 Rocket - Pass Details

Date: 15 December 2023
Orbit: 555 x 3309 km, 32.9° (Epoch: 02 March)

Event Time Altitude Azimuth Distance (km) Brightness Sun altitude
Rises 10:54:24 0° 225° (SW) 4,186 10.6 26.9°
Reaches altitude 10° 10:56:54 10° 218° (SW) 3,507 10.4 27.0°
Maximum altitude 11:05:52 47° 148° (SSE) 2,548 10.8 27.6°
Drops below altitude 10° 11:20:52 10° 82° (E) 5,725 11.1 28.5°
Sets 11:26:13 0° 78° (ENE) 7,024 11.4 28.7°
